GW6280 Weather Reports


time (UTC)temp
C
wind
direction
speed
KPH
gust
KPH
rain 1hr
cm
rain 24hr
cm
rain mn
cm
humidity
%
barometer
mb
20260505124028 12 164 4.8 8.0 0.00 0.00 0.00 89 1016.1
20260505123033 12 102 4.8 8.0 0.00 0.00 0.00 89 1016.0
20260505122038 12 129 4.8 8.0 0.00 0.00 0.00 90 1015.9
20260505121021 12 135 4.8 8.0 0.00 0.00 0.00 90 1015.9
20260505120024 12 114 4.8 11.3 0.00 0.00 0.00 90 1015.9
20260505115022 12 144 4.8 8.0 0.00 0.00 0.00 90 1015.9
20260505114019 12 130 3.2 4.8 0.00 0.00 0.00 90 1015.8
20260505113037 12 124 3.2 8.0 0.00 0.00 0.00 90 1015.6
20260505112020 12 86 6.4 9.7 0.00 0.00 0.00 90 1015.6
20260505111024 12 108 4.8 8.0 0.00 0.00 0.00 91 1015.6
20260505102043 12 128 3.2 6.4 0.00 0.00 0.00 93 1015.1
20260505101046 11 180 0.0 3.2 0.00 0.00 0.00 94 1015.1
20260505100029 11 119 3.2 6.4 0.00 0.00 0.00 95 1015.1
20260505095015 11 134 1.6 4.8 0.00 0.00 0.00 95 1015.0
20260505094018 11 106 1.6 4.8 0.00 0.00 0.00 95 1014.9
20260505093043 11 121 1.6 4.8 0.00 0.00 0.00 95 1014.9
20260505092026 11 155 1.6 4.8 0.00 0.00 0.00 95 1014.8
20260505091030 11 135 0.0 4.8 0.00 0.00 0.00 95 1014.6
20260505090033 11 237 1.6 4.8 0.00 0.00 0.00 95 1014.6
20260505085018 11 0.0 0.0 0.00 0.00 0.00 95 1014.6
20260505084022 11 0.0 0.0 0.00 0.00 0.00 95 1014.6
20260505083025 11 0.0 0.0 0.00 0.00 0.00 95 1014.5
20260505082028 11 261 0.0 4.8 0.00 0.00 0.00 95 1014.5
20260505081046 11 199 1.6 4.8 0.00 0.00 0.00 95 1014.4
20260505080038 11 270 0.0 1.6 0.00 0.00 0.00 95 1014.5
20260505075101 11 0.0 0.0 0.00 0.00 0.00 95 1014.3
20260505074038 11 0.0 0.0 0.00 0.00 0.00 95 1014.1
20260505073015 11 225 0.0 4.8 0.00 0.00 0.00 95 1014.1
20260505072031 11 90 0.0 1.6 0.00 0.00 0.00 95 1014.0
20260505071037 11 0.0 3.2 0.00 0.00 0.00 94 1013.9
20260505070040 11 273 1.6 3.2 0.00 0.00 0.00 94 1013.8
20260505065023 11 0.0 0.0 0.00 0.00 0.00 92 1013.7
20260505064027 11 0.0 0.0 0.00 0.00 0.00 92 1013.6
20260505063051 11 0.0 0.0 0.00 0.00 0.00 92 1013.6
20260505062016 12 237 1.6 4.8 0.00 0.00 0.00 90 1013.4
20260505061019 12 0.0 0.0 0.00 0.00 0.00 91 1013.3
20260505060023 12 0.0 0.0 0.00 0.00 0.00 91 1013.0
20260505055026 12 0.0 0.0 0.00 0.00 0.00 90 1013.0
20260505054050 12 0.0 0.0 0.00 0.00 0.00 89 1012.9
20260505053015 12 0.0 0.0 0.00 0.00 0.00 88 1012.9
20260505052040 13 0.0 0.0 0.00 0.00 0.00 86 1012.8
20260505051022 13 0.0 0.0 0.00 0.00 0.00 86 1012.6
20260505041024 15 0.0 0.0 0.00 0.00 0.00 77 1012.0
20260505040022 15 0.0 0.0 0.00 0.00 0.00 78 1011.9
20260505035020 16 225 1.6 4.8 0.00 0.00 0.00 77 1011.7
20260505034017 16 0.0 0.0 0.00 0.00 0.00 73 1011.6
20260505033020 17 0.0 0.0 0.00 0.00 0.00 72 1011.6
20260505032024 17 0.0 0.0 0.00 0.00 0.00 70 1011.5
20260505031028 18 0.0 0.0 0.00 0.00 0.00 68 1011.3
20260505030051 18 0.0 0.0 0.00 0.00 0.00 67 1011.3
20260505025016 18 0.0 0.0 0.00 0.00 0.00 66 1011.2
20260505024020 18 260 3.2 3.2 0.00 0.00 0.00 65 1011.1
20260505023023 19 0.0 0.0 0.00 0.00 0.00 63 1011.1
20260505022027 19 248 1.6 3.2 0.00 0.00 0.00 63 1011.1
20260505021030 20 267 1.6 3.2 0.00 0.00 0.00 62 1011.1
20260505020036 20 239 1.6 3.2 0.00 0.00 0.00 61 1011.1
20260505015019 20 270 0.0 3.2 0.00 0.00 0.00 59 1011.2
20260505014022 21 215 1.6 3.2 0.00 0.00 0.00 59 1011.2
20260505013026 21 280 1.6 3.2 0.00 0.00 0.00 59 1011.1
20260505012049 22 269 1.6 3.2 0.00 0.00 0.00 54 1011.3
20260505011033 22 26 1.6 8.0 0.00 0.00 0.00 54 1011.3
20260505010018 22 113 0.0 3.2 0.00 0.00 0.00 58 1011.3
20260505005016 23 286 1.6 4.8 0.00 0.00 0.00 56 1011.3
20260505004020 23 254 3.2 4.8 0.00 0.00 0.00 52 1011.3
20260505003023 23 244 3.2 3.2 0.00 0.00 0.00 52 1011.3
20260505002026 24 253 4.8 4.8 0.00 0.00 0.00 48 1011.3
20260505001044 24 148 3.2 4.8 0.00 0.00 0.00 47 1011.1
20260505000015 25 259 3.2 8.0 0.00 0.00 0.00 47 1011.3
20260504235019 25 237 3.2 4.8 0.00 0.00 0.00 46 1011.3
20260504234016 26 258 4.8 8.0 0.00 0.00 0.00 44 1011.2
20260504233025 26 244 3.2 6.4 0.00 0.00 0.00 45 1011.1
20260504232029 26 230 4.8 8.0 0.00 0.00 0.00 45 1011.3
20260504231053 26 196 4.8 6.4 0.00 0.00 0.00 46 1011.4
20260504230038 26 256 4.8 11.3 0.00 0.00 0.00 47 1011.6
20260504225021 25 98 4.8 9.7 0.00 0.00 0.00 49 1011.7
20260504224025 25 222 4.8 8.0 0.00 0.00 0.00 48 1011.8
20260504223028 25 192 4.8 9.7 0.00 0.00 0.00 50 1011.8
20260504222032 26 189 4.8 8.0 0.00 0.00 0.00 49 1011.9
20260504221017 25 96 4.8 9.7 0.00 0.00 0.00 50 1012.0
20260504220021 25 81 4.8 8.0 0.00 0.00 0.00 51 1012.1
20260504215024 25 139 4.8 8.0 0.00 0.00 0.00 53 1012.2
20260504214027 25 118 4.8 12.9 0.00 0.00 0.00 52 1012.3
20260504213051 24 137 4.8 6.4 0.00 0.00 0.00 54 1012.4
20260504212016 23 90 4.8 8.0 0.00 0.00 0.00 55 1012.4
20260504211020 23 97 6.4 9.7 0.00 0.00 0.00 56 1012.5
20260504210043 23 125 8.0 11.3 0.00 0.00 0.00 56 1012.6
20260504205027 23 114 6.4 11.3 0.00 0.00 0.00 55 1012.6
20260504204030 23 109 6.4 9.7 0.00 0.00 0.00 56 1012.6
20260504203016 23 103 6.4 9.7 0.00 0.00 0.00 56 1012.6
20260504202019 22 118 4.8 9.7 0.00 0.00 0.00 56 1012.6
20260504201022 22 112 6.4 9.7 0.00 0.00 0.00 56 1012.6
20260504200019 23 89 8.0 11.3 0.00 0.00 0.00 53 1012.5
20260504195018 24 146 4.8 9.7 0.00 0.00 0.00 48 1012.5
20260504194032 23 121 6.4 9.7 0.00 0.00 0.00 51 1012.6
20260504193018 22 92 6.4 8.0 0.00 0.00 0.00 51 1012.6
20260504192021 22 100 6.4 12.9 0.00 0.00 0.00 54 1012.9
20260504191025 21 180 6.4 9.7 0.00 0.00 0.00 55 1012.9
20260504190029 22 119 4.8 9.7 0.00 0.00 0.00 55 1013.0
20260504185032 21 108 4.8 8.0 0.00 0.00 0.00 55 1013.0
20260504184017 22 82 6.4 9.7 0.00 0.00 0.00 53 1013.1
20260504183021 22 87 6.4 9.7 0.00 0.00 0.00 54 1013.0
20260504182024 22 93 4.8 8.0 0.00 0.00 0.00 55 1012.9
20260504181027 22 107 6.4 8.0 0.00 0.00 0.00 54 1013.0
20260504180032 21 107 4.8 8.0 0.00 0.00 0.00 57 1013.0
20260504175016 21 111 8.0 9.7 0.00 0.00 0.00 56 1013.0
20260504174019 20 123 3.2 8.0 0.00 0.00 0.00 56 1013.0
20260504173023 20 84 4.8 9.7 0.00 0.00 0.00 60 1013.1
20260504172026 19 106 6.4 8.0 0.00 0.00 0.00 63 1013.1
20260504171030 19 98 6.4 8.0 0.00 0.00 0.00 61 1013.1
20260504151030 13 113 1.6 4.8 0.00 0.00 0.00 78 1012.6
20260504141033 8 0.0 0.0 0.00 0.00 0.00 98 1012.3